Flag for United Kingdom Weather past 2 weeks in Oxford, England, United Kingdom

Now
70 °F

Broken clouds.


Feels Like: 70 °F
Forecast: 54 / 80 °F
Wind: 3 mph from West

Location: Benson

Current Time: Jul 2, 2015 at 1:54:35 PM

Latest Report: Jul 2, 2015 at 12:50 PM


Visibility: N/A

Pressure: 30.09 "Hg

Humidity: 69%

Dew point: 59 °F

Location of OxfordLocation

Historic Weather in Oxford — Graph

°F

Oxford temperature yesterday

Maximum temperature yesterday: 91 °F (at 3:50 PM)
Minimum temperature yesterday: 64 °F (at 2:50 AM)
Average temperature yesterday: 79 °F

Past Weeks' High & Low Weather Summary

 TemperatureHumidityPressure
High91 °F (Jul 1, 3:50 PM)100% (Jun 18, 1:50 AM)30.21 "Hg (Jun 18, 1:50 AM)
Low41 °F (Jun 19, 3:50 AM)26% (Jun 30, 1:50 PM)29.80 "Hg (Jun 22, 11:50 AM)
Average63 °F71%30.07 "Hg
* Reported Jun 17 12:50 PM — Jul 2 12:50 PM, Oxford, Weather by CustomWeather, © 2015

Note: Actual official high and low records may vary slightly from our data, if they occured in-between our weather recording intervals... More about our weather records

Advertising

Oxford weather history for previous 24 hours

 ConditionsComfort  
Time TempWeatherWind HumidityBarometerVisibility
12:50 PM
Thu, Jul 2
70 °FBroken clouds.3 mph69%30.09 "HgN/A
11:50 AM68 °FBroken clouds.9 mph78%30.09 "HgN/A
10:50 AM64 °FSprinkles. Broken clouds.7 mph83%30.07 "HgN/A
9:50 AM64 °FPartly sunny.6 mph83%30.09 "HgN/A
8:50 AM64 °FPartly sunny.6 mph83%30.04 "HgN/A
7:50 AM63 °FPartly sunny.3 mph88%30.04 "HgN/A
6:50 AM63 °FSunny.7 mph83%30.04 "Hg10 mi
5:50 AM59 °FClear.6 mph94%30.01 "Hg10 mi
4:50 AM59 °FClear.6 mph88%30.01 "Hg10 mi
3:50 AM61 °FClear.7 mph88%29.98 "Hg10 mi
2:50 AM63 °FPassing clouds.5 mph88%29.98 "HgN/A
1:50 AM64 °FLow clouds.6 mph88%29.98 "Hg5 mi
12:50 AM66 °FClear.8 mph83%29.95 "Hg10 mi
11:50 PM
Wed, Jul 1
70 °FClear.8 mph78%29.92 "Hg10 mi
10:50 PM72 °FClear.9 mph73%29.92 "Hg10 mi
9:50 PM75 °FSunny.9 mph65%29.89 "Hg10 mi
8:50 PM81 °FSunny.10 mph54%29.86 "Hg10 mi
7:50 PM82 °FSunny.9 mph51%29.83 "Hg10 mi
6:50 PM86 °FSunny.13 mph43%29.83 "Hg10 mi
5:50 PM90 °FSunny.13 mph38%29.80 "Hg10 mi
4:50 PM91 °FSunny.13 mph34%29.80 "Hg10 mi
3:50 PM91 °FSunny.13 mph34%29.83 "Hg10 mi
2:50 PM90 °FSunny.12 mph36%29.83 "Hg10 mi
1:50 PM88 °FSunny.13 mph40%29.83 "Hg10 mi
Weather by CustomWeather, © 2015

See weather overviewHow to use our weather pages